• In Hungary
  • List of Countries
  • For 7 days
  • Water Temperature
  • Satellite Maps
  • Weather Map
  • News
  • Weather Widgets
  • user-avatar
    Login

    Hourly Weather Neumarkt in der Oberpfalz

    Today, 20 November, Monday

    Time Temperature Precipitation Wind Pressure Humidity
    00:00 +1°C° 0.1 mm 6 mps 726 mmHg 86%
    01:00 +1°C° 0.1 mm 6 mps 726 mmHg 87%
    02:00 0°C° 0.1 mm 5 mps 726 mmHg 87%
    03:00 0°C° 0.1 mm 5 mps 727 mmHg 88%
    04:00 0°C° 0.1 mm 5 mps 727 mmHg 88%
    05:00 0°C° 0.1 mm 5 mps 727 mmHg 89%
    06:00 -1°C° 0.1 mm 5 mps 727 mmHg 90%
    07:00 -1°C° 0.1 mm 4 mps 727 mmHg 91%
    08:00 -1°C° 0 mm 4 mps 727 mmHg 89%
    09:00 0°C° 0 mm 4 mps 727 mmHg 88%
    10:00 0°C° 0 mm 4 mps 727 mmHg 87%
    11:00 0°C° 0.1 mm 4 mps 727 mmHg 84%
    12:00 0°C° 0.1 mm 4 mps 727 mmHg 82%
    13:00 +1°C° 0.1 mm 4 mps 727 mmHg 80%
    14:00 +1°C° 0.1 mm 4 mps 726 mmHg 80%
    15:00 0°C° 0.1 mm 4 mps 726 mmHg 80%
    16:00 +1°C° 0.1 mm 3 mps 725 mmHg 80%
    17:00 +1°C° 0.2 mm 3 mps 725 mmHg 81%
    18:00 +1°C° 0.2 mm 3 mps 724 mmHg 82%
    19:00 0°C° 0.2 mm 4 mps 724 mmHg 83%
    20:00 +1°C° 0.6 mm 4 mps 724 mmHg 85%
    21:00 +1°C° 0.6 mm 5 mps 723 mmHg 87%
    22:00 +2°C° 0.6 mm 5 mps 723 mmHg 89%
    23:00 +2°C° 0.1 mm 6 mps 723 mmHg 89%

    Tomorrow, 21 November, Tuesday

    Time Temperature Precipitation Wind Pressure Humidity
    00:00 +2°C° 0.1 mm 6 mps 722 mmHg 90%
    01:00 +3°C° 0.1 mm 6 mps 722 mmHg 90%
    02:00 +3°C° 0.6 mm 6 mps 722 mmHg 90%
    03:00 +3°C° 0.6 mm 6 mps 722 mmHg 91%
    04:00 +3°C° 0.6 mm 6 mps 722 mmHg 91%
    05:00 +3°C° 0.2 mm 6 mps 722 mmHg 91%
    06:00 +3°C° 0.2 mm 6 mps 722 mmHg 91%
    07:00 +4°C° 0.2 mm 6 mps 722 mmHg 92%
    08:00 +4°C° 0.2 mm 6 mps 723 mmHg 91%
    09:00 +4°C° 0.2 mm 6 mps 723 mmHg 91%
    10:00 +4°C° 0.2 mm 6 mps 723 mmHg 91%
    11:00 +6°C° 0.1 mm 5 mps 723 mmHg 90%
    12:00 +6°C° 0.1 mm 5 mps 723 mmHg 90%
    13:00 +6°C° 0.1 mm 5 mps 723 mmHg 90%
    14:00 +6°C° 0.4 mm 5 mps 723 mmHg 90%
    15:00 +6°C° 0.4 mm 4 mps 723 mmHg 91%
    16:00 +6°C° 0.4 mm 4 mps 723 mmHg 92%
    17:00 +6°C° 0.4 mm 4 mps 723 mmHg 91%
    18:00 +6°C° 0.4 mm 4 mps 723 mmHg 90%
    19:00 +5°C° 0.4 mm 4 mps 723 mmHg 90%
    20:00 +5°C° 0 mm 3 mps 723 mmHg 91%
    21:00 +4°C° 0 mm 3 mps 723 mmHg 92%
    22:00 +5°C° 0 mm 2 mps 723 mmHg 93%
    23:00 +4°C° 0 mm 2 mps 723 mmHg 92%

    Day after tomorrow, 22 November, Wednesday

    Time Temperature Precipitation Wind Pressure Humidity
    00:00 +4°C° 0 mm 2 mps 723 mmHg 91%
    01:00 +4°C° 0 mm 2 mps 723 mmHg 91%
    02:00 +4°C° 0 mm 2 mps 723 mmHg 90%
    03:00 +3°C° 0 mm 2 mps 723 mmHg 90%
    04:00 +3°C° 0 mm 2 mps 723 mmHg 89%
    05:00 +3°C° 0 mm 2 mps 723 mmHg 89%
    06:00 +3°C° 0 mm 2 mps 723 mmHg 88%
    07:00 +3°C° 0 mm 2 mps 723 mmHg 88%
    08:00 +4°C° 0 mm 2 mps 723 mmHg 85%
    09:00 +5°C° 0 mm 2 mps 723 mmHg 81%
    10:00 +5°C° 0 mm 3 mps 723 mmHg 78%
    11:00 +7°C° 0 mm 3 mps 723 mmHg 76%
    12:00 +8°C° 0 mm 2 mps 723 mmHg 74%
    13:00 +10°C° 0 mm 2 mps 723 mmHg 72%
    14:00 +9°C° 0 mm 2 mps 722 mmHg 76%
    15:00 +8°C° 0 mm 2 mps 722 mmHg 80%
    16:00 +7°C° 0 mm 2 mps 722 mmHg 85%
    17:00 +6°C° 0 mm 2 mps 722 mmHg 85%
    18:00 +6°C° 0 mm 2 mps 722 mmHg 85%
    19:00 +5°C° 0 mm 2 mps 722 mmHg 86%
    20:00 +5°C° 0 mm 2 mps 722 mmHg 85%
    21:00 +4°C° 0 mm 2 mps 722 mmHg 84%
    22:00 +4°C° 0 mm 2 mps 723 mmHg 84%
    23:00 +4°C° 0 mm 2 mps 723 mmHg 83%

    23 November, Thursday

    Time Temperature Precipitation Wind Pressure Humidity
    00:00 +4°C° 0 mm 2 mps 723 mmHg 82%
    01:00 +4°C° 0 mm 2 mps 723 mmHg 81%
    02:00 +4°C° 0 mm 2 mps 723 mmHg 81%
    03:00 +4°C° 0 mm 2 mps 723 mmHg 80%
    04:00 +4°C° 0 mm 2 mps 723 mmHg 80%
    05:00 +4°C° 0 mm 2 mps 724 mmHg 80%
    06:00 +4°C° 0 mm 2 mps 724 mmHg 80%
    07:00 +4°C° 0 mm 2 mps 724 mmHg 79%
    08:00 +5°C° 0 mm 2 mps 725 mmHg 77%
    09:00 +6°C° 0 mm 2 mps 725 mmHg 74%
    10:00 +7°C° 0 mm 3 mps 726 mmHg 71%
    11:00 +8°C° 0 mm 3 mps 726 mmHg 69%
    12:00 +10°C° 0 mm 3 mps 726 mmHg 68%
    13:00 +12°C° 0 mm 2 mps 726 mmHg 66%
    14:00 +10°C° 0 mm 2 mps 726 mmHg 71%
    15:00 +9°C° 0 mm 2 mps 726 mmHg 75%
    16:00 +8°C° 0 mm 2 mps 726 mmHg 80%
    17:00 +8°C° 0 mm 2 mps 727 mmHg 80%
    18:00 +7°C° 0 mm 2 mps 727 mmHg 81%
    19:00 +6°C° 0 mm 2 mps 727 mmHg 82%
    20:00 +6°C° 0 mm 2 mps 727 mmHg 82%
    21:00 +6°C° 0 mm 2 mps 728 mmHg 82%
    22:00 +6°C° 0 mm 2 mps 728 mmHg 82%
    23:00 +5°C° 0 mm 2 mps 728 mmHg 82%

    24 November, Friday

    Time Temperature Precipitation Wind Pressure Humidity
    00:00 +5°C° 0 mm 2 mps 728 mmHg 82%
    01:00 +5°C° 0 mm 2 mps 728 mmHg 82%
    02:00 +5°C° 0 mm 2 mps 728 mmHg 81%
    03:00 +4°C° 0 mm 2 mps 728 mmHg 81%
    04:00 +4°C° 0 mm 2 mps 728 mmHg 81%
    05:00 +4°C° 0 mm 2 mps 728 mmHg 80%
    06:00 +4°C° 0 mm 2 mps 728 mmHg 79%
    07:00 +4°C° 0 mm 2 mps 728 mmHg 78%
    08:00 +5°C° 0 mm 2 mps 728 mmHg 75%
    09:00 +6°C° 0 mm 2 mps 728 mmHg 72%
    10:00 +7°C° 0 mm 2 mps 728 mmHg 68%
    11:00 +8°C° 0 mm 2 mps 728 mmHg 66%
    12:00 +9°C° 0 mm 2 mps 727 mmHg 65%
    13:00 +10°C° 0 mm 2 mps 727 mmHg 63%
    14:00 +9°C° 0 mm 2 mps 727 mmHg 67%
    15:00 +8°C° 0 mm 2 mps 726 mmHg 71%
    16:00 +7°C° 0 mm 2 mps 726 mmHg 75%
    17:00 +6°C° 0 mm 2 mps 726 mmHg 76%
    18:00 +6°C° 0 mm 1 mps 726 mmHg 76%
    19:00 +6°C° 0 mm 1 mps 726 mmHg 77%
    20:00 +5°C° 0 mm 1 mps 726 mmHg 77%
    21:00 +5°C° 0 mm 1 mps 726 mmHg 77%
    22:00 +5°C° 0 mm 1 mps 726 mmHg 76%
    23:00 +5°C° 0 mm 1 mps 726 mmHg 77%

    25 November, Saturday

    Time Temperature Precipitation Wind Pressure Humidity
    00:00 +5°C° 0 mm 1 mps 725 mmHg 77%
    01:00 +5°C° 0 mm 1 mps 725 mmHg 78%
    02:00 +4°C° 0 mm 1 mps 725 mmHg 80%
    03:00 +3°C° 0 mm 2 mps 725 mmHg 82%
    04:00 +3°C° 0 mm 2 mps 725 mmHg 84%
    05:00 +2°C° 0 mm 2 mps 725 mmHg 84%
    06:00 +2°C° 0 mm 2 mps 724 mmHg 85%
    07:00 +2°C° 0 mm 2 mps 724 mmHg 85%
    08:00 +3°C° 0 mm 2 mps 724 mmHg 80%
    09:00 +4°C° 0 mm 2 mps 724 mmHg 76%
    10:00 +5°C° 0 mm 2 mps 725 mmHg 71%
    11:00 +6°C° 0 mm 2 mps 724 mmHg 69%
    12:00 +7°C° 0 mm 2 mps 724 mmHg 67%
    13:00 +8°C° 0 mm 3 mps 724 mmHg 65%
    14:00 +7°C° 0 mm 2 mps 724 mmHg 67%
    15:00 +7°C° 0 mm 2 mps 724 mmHg 69%
    16:00 +6°C° 0 mm 2 mps 724 mmHg 72%
    17:00 +6°C° 0 mm 2 mps 725 mmHg 72%
    18:00 +6°C° 0 mm 2 mps 725 mmHg 73%
    19:00 +5°C° 0 mm 2 mps 725 mmHg 73%
    20:00 +6°C° 0 mm 2 mps 726 mmHg 74%
    21:00 +6°C° 0 mm 2 mps 727 mmHg 76%
    22:00 +6°C° 0 mm 2 mps 727 mmHg 77%
    23:00 +6°C° 0.1 mm 2 mps 727 mmHg 81%
    Show more